Location: Asheville, NC
(35.6000°N, 82.5500°W)
Time: 09:21:45
(UTC-04:00)

Vanguard 1 - Pass Details

Date: 13 March 2018
Orbit: 650 x 3833 km, 34.3° (Epoch: 24 June)

Event Time Altitude Azimuth Distance (km) Brightness Sun altitude
Rises 17:31:06 0° 287° (WNW) 7,211 15.2 23.9°
Reaches altitude 10° 17:37:29 10° 278° (W) 5,681 15.2 22.7°
Maximum altitude 17:49:23 27° 229° (SW) 3,273 14.3 20.4°
Drops below altitude 10° 17:57:01 10° 175° (S) 3,537 13.1 18.9°
Sets 17:59:56 0° 162° (SSE) 4,152 13.3 18.4°
